Newburgh, NY

11:50 AM EDT on May 25, 2018 (GMT -0400)
Stewart International

Weather History for KSWF - February, 2013

Change the Weather History Date:

Sunday, February 3, 2013

  Actual Average Record
Temperature  
Mean Temperature 19 °F -  
Max Temperature 26 °F 35 °F 59 °F (2016)
Min Temperature 12 °F 18 °F 1 °F (2015)
Degree Days  
Heating Degree Days 46    
Moisture  
Dew Point 16 °F    
Average Humidity 86    
Maximum Humidity 100    
Minimum Humidity 69    
Precipitation  
Precipitation 0.00 in - - ()
Sea Level Pressure  
Sea Level Pressure 29.89 in    
Wind  
Wind Speed 1 mph (West)    
Max Wind Speed 9 mph    
Max Gust Speed -    
Visibility 10 miles    
Events Fog , Snow    
Averages and records for this station are not official NWS values.
T = Trace of Precipitation, MM = Missing Value Source: NWS Daily Summary

Daily Weather History Graph

Daily Weather History Graph

Search for Another Location

Airport or City:

Astronomy

Feb. 03, 2013 Rise Set
Actual Time 7:05 AM EST 5:15 PM EST
Civil Twilight 6:36 AM EST 5:44 PM EST
Nautical Twilight 6:03 AM EST 6:17 PM EST
Astronomical Twilight 5:31 AM EST 6:49 PM EST
Moon 12:30 AM EST (2/3) 10:50 AM EST (2/3)
Length of Visible Light 11h 07m
Length of Day
10h 09m
Waning Gibbous, 49% of the Moon is Illuminated
Feb 3
Waning Gibbous
Feb 10
New
Feb 17
First Quarter
Feb 25
Full
Mar 4
Last Quarter

Hourly Weather History & Observations

Time (EST) Temp. Windchill Dew Point Humidity Pressure Visibility Wind Dir Wind Speed Gust Speed Precip Events Conditions
12:25 AM 19.4 °F - 17.6 °F 93% 30.03 in 5.0 mi Calm Calm - N/A Snow Light Snow
12:45 AM 19.4 °F - 17.6 °F 93% 30.02 in 3.0 mi Calm Calm - N/A Snow Light Snow
1:45 AM 19.4 °F - 17.6 °F 93% 30.01 in 10.0 mi Calm Calm - N/A Snow Light Snow
2:45 AM 17.6 °F - 15.8 °F 93% 29.99 in 10.0 mi Calm Calm - N/A Snow Light Snow
3:45 AM 15.8 °F - 14.0 °F 93% 29.96 in 10.0 mi Calm Calm - N/A   Scattered Clouds
4:45 AM 14.0 °F - 12.2 °F 93% 29.94 in 10.0 mi Calm Calm - N/A   Scattered Clouds
5:45 AM 12.2 °F - 12.2 °F 100% 29.93 in 10.0 mi Calm Calm - N/A   Scattered Clouds
6:45 AM 12.2 °F - 10.4 °F 92% 29.94 in 3.0 mi Calm Calm - N/A   Scattered Clouds
7:20 AM 14.0 °F - 12.2 °F 93% 29.94 in 0.5 mi Calm Calm - N/A Fog Fog
7:45 AM 17.6 °F - 15.8 °F 93% 29.95 in 2.0 mi Calm Calm - N/A   Overcast
8:45 AM 19.4 °F - 17.6 °F 93% 29.95 in 4.0 mi Calm Calm - N/A   Mostly Cloudy
9:45 AM 19.4 °F - 19.4 °F 100% 29.94 in 7.0 mi Calm Calm - N/A   Mostly Cloudy
10:45 AM 21.2 °F - 17.6 °F 86% 29.92 in 10.0 mi Calm Calm - N/A   Mostly Cloudy
11:45 AM 23.0 °F - 15.8 °F 74% 29.89 in 15.0 mi Calm Calm - N/A   Mostly Cloudy
12:45 PM 24.8 °F - 17.6 °F 74% 29.85 in 15.0 mi Calm Calm - N/A   Mostly Cloudy
1:45 PM 24.8 °F 16.9 °F 17.6 °F 74% 29.81 in 15.0 mi WNW 6.9 mph - N/A   Scattered Clouds
2:45 PM 26.6 °F 19.1 °F 17.6 °F 69% 29.80 in 20.0 mi West 6.9 mph - N/A   Scattered Clouds
3:45 PM 26.6 °F 17.5 °F 17.6 °F 69% 29.80 in 20.0 mi WNW 9.2 mph - N/A   Scattered Clouds
4:45 PM 26.6 °F 19.1 °F 17.6 °F 69% 29.78 in 20.0 mi WNW 6.9 mph - N/A   Mostly Cloudy
7:45 PM 23.0 °F 15.8 °F 17.6 °F 80% 29.79 in 10.0 mi WSW 5.8 mph - N/A   Clear
8:45 PM 21.2 °F 11.7 °F 17.6 °F 86% 29.79 in 10.0 mi WSW 8.1 mph - N/A   Clear
9:45 PM 21.2 °F - 15.8 °F 80% 29.79 in 10.0 mi Calm Calm - N/A   Mostly Cloudy
10:45 PM 21.2 °F - 15.8 °F 80% 29.78 in 10.0 mi Calm Calm - N/A   Mostly Cloudy
11:45 PM 23.0 °F - 19.4 °F 86% 29.78 in 3.0 mi Calm Calm - N/A Snow Light Snow